Location: Hoyos del Collado
(40.3594°N, 5.2003°W)
Time: 14:07:53
(UTC+00:00)

FENGYUN 1C DEB - Visible Passes

Search period start: 14 September 2024 00:00
Search period end: 24 September 2024 00:00
Orbit: 790 x 845 km, 98.5° (Epoch: 13 September)

Date Brightness Start Highest point End Pass type
(mag) Time Alt. Az. Time Alt. Az. Time Alt. Az.
14 Sep ? 05:30:45 10° NNE 05:36:01 86° ESE 05:41:20 10° SSW visible
15 Sep ? 05:09:17 10° NNE 05:14:26 54° E 05:19:37 10° S visible
16 Sep ? 04:48:00 10° NNE 04:52:47 34° E 04:57:34 10° SSE visible
17 Sep ? 04:27:01 10° NE 04:31:03 22° E 04:35:06 10° SE visible
18 Sep ? 04:06:41 10° ENE 04:09:15 14° E 04:11:50 10° ESE visible
19 Sep ? 05:22:55 10° NNE 05:28:13 74° ESE 05:33:33 10° S visible
20 Sep ? 05:01:30 10° NNE 05:06:35 46° E 05:11:42 10° S visible
21 Sep ? 04:40:18 10° NE 04:44:54 29° E 04:49:31 10° SSE visible
22 Sep ? 04:19:27 10° NE 04:23:08 19° E 04:26:49 10° SE visible
23 Sep ? 03:59:37 10° ENE 04:01:18 11° E 04:02:58 10° ESE visible
23 Sep ? 05:36:35 10° NNE 05:41:55 84° WNW 05:47:17 10° SSW visible
